Location: NCO
(38.4212°N, 77.1417°W)
Time: 19:35:09
(UTC-04:00)

BlueWalker 3 - Visible Passes

Search period start: 20 June 2025 00:00
Search period end: 30 June 2025 00:00
Orbit: 460 x 472 km, 53.2° (Epoch: 20 June)

Date Brightness Start Highest point End Pass type
(mag) Time Alt. Az. Time Alt. Az. Time Alt. Az.
20 Jun 1.8 04:33:59 19° SW 04:36:29 79° SE 04:40:07 10° NE visible
21 Jun 1.9 04:02:50 35° SSW 04:04:08 61° SE 04:07:44 10° NE visible
22 Jun 2.2 03:31:37 47° SE 03:31:48 47° SE 03:35:19 10° ENE visible
22 Jun 3.6 05:06:42 10° W 05:09:39 23° NNW 05:12:37 10° NNE visible
23 Jun 3.1 03:00:20 32° E 03:00:20 32° E 03:02:51 10° ENE visible
23 Jun 3.4 04:34:15 11° W 04:37:13 26° NNW 04:40:21 10° NNE visible
24 Jun 4.1 02:29:00 19° E 02:29:00 19° E 02:30:20 10° ENE visible
24 Jun 3.2 04:02:54 20° W 04:04:47 31° NNW 04:08:04 10° NNE visible
25 Jun 4.7 01:57:36 11° ENE 01:57:36 11° ENE 01:57:45 10° ENE visible
25 Jun 2.8 03:31:30 32° WNW 03:32:20 37° NW 03:35:45 10° NE visible
25 Jun 4.6 05:09:56 10° NNW 05:10:53 11° NNW 05:11:50 10° N visible
26 Jun 2.6 03:00:03 45° NNW 03:00:03 45° NNW 03:03:25 10° NE visible
26 Jun 4.5 04:36:56 10° NW 04:38:21 12° NNW 04:39:46 10° N visible
27 Jun 3.1 02:28:31 39° NNE 02:28:31 39° NNE 02:31:04 10° NE visible
27 Jun 4.5 04:04:01 10° NW 04:05:49 13° NNW 04:07:36 10° N visible
28 Jun 3.8 01:56:56 26° NE 01:56:56 26° NE 01:58:41 10° NE visible
28 Jun 4.5 03:31:10 10° WNW 03:33:16 15° NNW 03:35:23 10° NNE visible
29 Jun 4.4 01:25:18 17° NE 01:25:18 17° NE 01:26:16 10° NE visible
29 Jun 4.3 02:59:10 13° NW 03:00:44 16° NNW 03:03:07 10° NNE visible
